This demonstration page uses our WeatherBlox Daily Observations layout. Learn more.

Left ArrowRight Arrow

41.55636, -103.73856

Hourly Observations for July 16, 2015

Temp ( °F °C ) Dew Point ( °F °C ) Humidity (%) Winds ( mph kmh ) Pressure ( in mb ) Visibility ( mi km ) Precip ( " mm )
12:53 am 00:53 Clear 63 17.2 56 13.3 78 78 Calm 29.85 1011 10 16.0934 0 0
1:53 am 01:53 Clear 59 15 56 13.3 90 90 NW 7 11 29.85 1011 10 16.0934 0 0
2:53 am 02:53 Clear 58 14.4 56 13.3 93 93 NW 7 11 29.83 1010 10 16.0934 0 0
3:53 am 03:53 Clear 57 13.9 55 12.8 93 93 W 3 6 29.83 1010 10 16.0934 0 0
4:53 am 04:53 Clear 55 12.8 54 12.2 96 96 WNW 5 7 29.85 1011 8 12.87472 0 0
5:53 am 05:53 Sunny 54 12.2 53 11.7 97 97 WSW 5 7 29.85 1011 7 11.26538 0 0
6:53 am 06:53 Sunny 60 15.6 54 12.2 80 80 WNW 7 11 29.85 1011 10 16.0934 0 0
7:53 am 07:53 Sunny 65 18.3 54 12.2 68 68 NW 10 17 29.85 1011 10 16.0934 0 0
8:53 am 08:53 Sunny 72 22.2 54 12.2 53 53 W 12 19 29.85 1011 10 16.0934 0 0
9:53 am 09:53 Sunny 76 24.4 55 12.8 48 48 W 14 22 29.85 1011 10 16.0934 0 0
10:53 am 10:53 Sunny 80 26.7 52 11.1 38 38 NW 10 17 29.85 1011 10 16.0934 0 0
11:53 am 11:53 Sunny 82 27.8 51 10.6 34 34 WNW 9 15 29.83 1010 10 16.0934 0 0
12:53 pm 12:53 Sunny 86 30 49 9.4 28 28 W 10 17 29.81 1010 10 16.0934 0 0
1:53 pm 13:53 Sunny 87 30.6 48 8.9 26 26 NW 7 11 29.8 1009 10 16.0934 0 0
2:53 pm 14:53 Sunny 89 31.7 48 8.9 24 24 NW 9 15 29.77 1008 10 16.0934 0 0
3:53 pm 15:53 Sunny 89 31.7 47 8.3 23 23 NNW 7 11 29.76 1008 10 16.0934 0 0
4:53 pm 16:53 Sunny 90 32.2 46 7.8 22 22 VRB 5 7 29.73 1007 10 16.0934 0 0
5:53 pm 17:53 Sunny 88 31.1 49 9.4 26 26 SE 7 11 29.74 1007 10 16.0934 0 0
6:53 pm 18:53 Sunny 84 28.9 52 11.1 33 33 SE 7 11 29.72 1007 10 16.0934 0 0
7:53 pm 19:53 Sunny 78 25.6 57 13.9 48 48 E 8 13 29.72 1007 10 16.0934 0 0
8:53 pm 20:53 Clear 77 25 53 11.7 43 43 SSE 7 11 29.72 1006 10 16.0934 0 0
9:53 pm 21:53 Clear 76 24.4 47 8.3 36 36 S 7 11 29.72 1006 10 16.0934 0 0
10:53 pm 22:53 Clear 76 24.4 46 7.8 35 35 SSW 8 13 29.72 1006 10 16.0934 0 0
11:53 pm 23:53 Clear 70 21.1 48 8.9 46 46 NNW 8 13 29.73 1007 10 16.0934 0 0

Powered by AerisWeather